User: anonymous   Login
Location: Caltech
(34.1382°N, 118.1253°W)
Time: 18:03:19
(UTC-07:00)
Language:

Cosmos 1975 - Orbit

View from above orbital plane
View from above orbital plane
View from above satellite
View from above satellite

Ground track
Ground track

The orbit data is extracted from the following two-line orbital elements,

1 19573U 88093A   15088.11665322  .00005248  00000-0  39535-3 0  9998
2 19573 082.5217 049.3190 0015100 170.8848 189.2654 15.02217694437940
Epoch (UTC): 29 March 2015 02:47:58
Eccentricity: 0.0015100
inclination: 82.5217°
perigee height: 549 km
apogee height: 570 km
right ascension of ascending node: 49.3190°
argument of perigee: 170.8848°
revolutions per day: 15.02217694
mean anomaly at epoch: 189.2654°
orbit number at epoch: 43794

The dashed part of the orbit path shows where the satellite is in the earth's shadow,  

DLR